Pila Airport

Jump to: basic info | weather | runways | comments

Related pages: nearby airports | nearby navaids | notams | map

Basic information (top)

Codes: EPPI
Location: lon 53.169998, lat 16.712500, elev 259 ft / 79 m msl
Status: small_airport

Weather (top)

Current conditions for Poznań-Ławica Airport 45nm (84km) S (rec'd 2014/10/22 15:00Z):

EPPO 221500Z 31006KT 6000 -RA BKN004 09/08 Q1004

Airport forecast for Poznań-Ławica Airport 45nm (84km) S (rec'd 2014/10/22 12:34Z):

TAF EPPO 221130Z 2212/2312 30010KT 9000 BKN020 
      TEMPO 2212/2220 5000 RA BKN005 BKN013 
      BECMG 2215/2218 02010KT 
      TEMPO 2218/2306 02015G25KT PROB40 
      TEMPO 2220/2306 BKN015CB

Runways (top)

03/21: 7,876 x 195 ft (2,401 x 59 m) — other (PEM) — lighted

Latest comments (top)

No comments yet for Pila Airport

More... (top)

See also NOTAMs and nearby airports and navaids, or visit the Pila Airport page at the main OurAirports website..